FW3241 Weather Reports


time (UTC)temp
C
wind
direction
speed
KPH
gust
KPH
rain 1hr
cm
rain 24hr
cm
rain mn
cm
humidity
%
barometer
mb
20260901133108 20 158 0.0 0.0 0.00 0.00 0.00 73 1022.0
20260901131603 20 158 0.0 0.0 0.00 0.00 0.00 75 1022.0
20260901130059 19 158 0.0 0.0 0.00 0.00 0.00 76 1022.0
20260901124559 19 158 0.0 0.0 0.00 0.00 0.00 76 1022.0
20260901123058 19 158 0.0 0.0 0.00 0.00 0.00 77 1022.0
20260901121558 18 158 0.0 0.0 0.00 0.00 0.00 77 1022.0
20260901120118 18 158 0.0 0.0 0.00 0.00 0.00 77 1021.9
20260901114555 18 158 0.0 0.0 0.00 0.00 0.00 77 1021.8
20260901113058 18 158 0.0 0.0 0.00 0.00 0.00 77 1021.5
20260901111553 18 158 0.0 0.0 0.00 0.00 0.00 77 1021.3
20260901110058 18 158 0.0 0.0 0.00 0.00 0.00 77 1021.1
20260901104557 18 158 0.0 0.0 0.00 0.00 0.00 77 1021.0
20260901103050 18 158 0.0 0.0 0.00 0.00 0.00 77 1021.0
20260901101554 18 158 0.0 0.0 0.00 0.00 0.00 77 1020.9
20260901100049 18 158 0.0 0.0 0.00 0.00 0.00 77 1020.7
20260901094550 18 158 0.0 0.0 0.00 0.00 0.00 77 1020.7
20260901093052 19 158 0.0 0.0 0.00 0.00 0.00 76 1020.8
20260901091558 19 158 0.0 0.0 0.00 0.00 0.00 76 1020.8
20260901090044 19 158 0.0 0.0 0.00 0.00 0.00 76 1020.7
20260901084543 19 158 0.0 0.0 0.00 0.00 0.00 76 1020.9
20260901083043 19 158 0.0 0.0 0.00 0.00 0.00 75 1021.0
20260901081542 19 158 0.0 0.0 0.00 0.00 0.00 75 1021.0
20260901080041 19 158 0.0 0.0 0.00 0.00 0.00 75 1021.0
20260901074548 19 158 0.0 0.0 0.00 0.00 0.00 76 1021.0
20260901073039 19 158 0.0 0.0 0.00 0.00 0.00 77 1021.1
20260901071538 19 158 0.0 0.0 0.00 0.00 0.00 77 1021.1
20260901070037 19 158 0.0 0.0 0.00 0.00 0.00 77 1021.2
20260901064537 19 158 0.0 0.0 0.00 0.00 0.00 77 1021.2
20260901063036 19 158 0.0 0.0 0.00 0.00 0.00 76 1021.2
20260901061533 20 158 0.0 0.0 0.00 0.00 0.00 76 1021.4
20260901060033 20 158 0.0 0.0 0.00 0.00 0.00 76 1021.6
20260901054530 20 158 0.0 0.0 0.00 0.00 0.00 76 1021.5
20260901053030 20 158 0.0 0.0 0.00 0.00 0.00 76 1021.5
20260901051529 20 158 0.0 0.0 0.00 0.00 0.00 76 1021.5
20260901050028 20 158 0.0 0.0 0.00 0.00 0.00 76 1021.7
20260901044529 20 158 0.0 0.0 0.00 0.00 0.00 76 1021.6
20260901043028 20 158 0.0 0.0 0.00 0.00 0.00 76 1021.4
20260901041524 20 158 0.0 0.0 0.00 0.00 0.00 75 1021.4
20260901040021 20 158 0.0 0.0 0.00 0.00 0.00 76 1021.4
20260901034520 20 158 0.0 0.0 0.00 0.00 0.00 75 1021.4
20260901033023 20 158 0.0 0.0 0.00 0.00 0.00 76 1021.4
20260901031530 20 158 0.0 0.0 0.00 0.00 0.00 76 1021.4
20260901030019 20 158 0.0 0.0 0.00 0.00 0.00 76 1021.4
20260901024519 20 158 0.0 0.0 0.00 0.00 0.00 77 1021.5
20260901023026 20 158 0.0 0.0 0.00 0.00 0.00 77 1021.5
20260901021520 20 158 0.0 0.0 0.00 0.00 0.00 77 1021.5
20260901020029 20 158 0.0 1.6 0.00 0.00 0.00 77 1021.4
20260901014521 20 158 0.0 0.0 0.00 0.00 0.00 77 1021.4
20260901013028 20 158 0.0 0.0 0.00 0.00 0.00 76 1021.4
20260901011517 20 158 0.0 0.0 0.00 0.00 0.00 76 1021.2
20260901010021 20 158 0.0 0.0 0.00 0.00 0.00 75 1021.0
20260901004515 21 158 0.0 1.6 0.00 0.00 0.00 75 1020.8
20260901003014 21 158 0.0 0.0 0.00 0.00 0.00 74 1020.9
20260901001521 21 158 0.0 0.0 0.00 0.00 0.00 73 1020.9
20260901000013 21 158 0.0 0.0 0.00 0.00 0.00 73 1021.1
20260831234514 22 158 0.0 0.0 0.00 0.00 0.00 72 1021.0
20260831233013 22 158 0.0 0.0 0.00 0.00 0.00 72 1021.0
20260831231511 22 158 0.0 0.0 0.00 0.00 0.00 72 1021.0
20260831230011 22 158 0.0 0.0 0.00 0.00 0.00 70 1020.9
20260831224510 22 158 0.0 1.6 0.00 0.00 0.00 69 1021.0
20260831223010 22 158 0.0 0.0 0.00 0.00 0.00 70 1020.9
20260831221508 22 158 0.0 3.2 0.00 0.00 0.00 70 1021.2
20260831220007 22 158 0.0 0.0 0.00 0.00 0.00 69 1021.1
20260831214506 23 158 0.0 0.0 0.00 0.00 0.00 70 1021.2
20260831213010 23 158 0.0 0.0 0.00 0.00 0.00 69 1021.3
20260831211505 23 158 0.0 3.2 0.00 0.00 0.00 69 1021.4
20260831210004 22 158 0.0 0.0 0.00 0.00 0.00 71 1021.3
20260831204503 22 158 0.0 1.6 0.00 0.00 0.00 70 1021.3
20260831203002 22 158 0.0 3.2 0.00 0.00 0.00 70 1021.4
20260831201501 21 158 0.0 0.0 0.00 0.00 0.00 72 1021.6
20260831200100 21 158 0.0 0.0 0.00 0.00 0.00 75 1021.7
20260831194624 21 158 0.0 0.0 0.00 0.00 0.00 73 1021.7
20260831193058 21 158 0.0 0.0 0.00 0.00 0.00 74 1021.8
20260831191604 21 158 0.0 0.0 0.00 0.00 0.00 73 1021.9
20260831190108 21 158 0.0 1.6 0.00 0.00 0.00 71 1022.0
20260831184558 21 158 1.6 3.2 0.00 0.00 0.00 69 1022.1
20260831183059 23 159 0.0 3.2 0.00 0.00 0.00 67 1022.2
20260831181559 24 159 0.0 3.2 0.00 0.00 0.00 66 1022.0
20260831180055 25 159 0.0 3.2 0.00 0.00 0.00 63 1022.1
20260831174559 25 123 0.0 1.6 0.00 0.00 0.00 66 1022.1
20260831173117 24 123 0.0 1.6 0.00 0.00 0.00 67 1022.3
20260831171547 23 123 0.0 0.0 0.00 0.00 0.00 69 1022.5
20260831170041 22 123 0.0 3.2 0.00 0.00 0.00 73 1022.7
20260831164546 21 123 0.0 1.6 0.00 0.00 0.00 74 1022.9
20260831163040 21 123 0.0 1.6 0.00 0.00 0.00 76 1023.1
20260831161535 21 123 0.0 1.6 0.00 0.00 0.00 76 1023.2
20260831160036 21 123 0.0 1.6 0.00 0.00 0.00 77 1023.1
20260831154535 20 123 0.0 0.0 0.00 0.00 0.00 79 1023.1
20260831153028 20 123 0.0 1.6 0.00 0.00 0.00 79 1023.2
20260831151526 20 123 0.0 4.8 0.00 0.00 0.00 79 1023.2
20260831150033 19 123 0.0 1.6 0.00 0.00 0.00 79 1023.3
20260831144523 19 123 0.0 0.0 0.00 0.00 0.00 80 1023.2
20260831143022 19 123 0.0 1.6 0.00 0.00 0.00 79 1023.3
20260831141521 19 123 0.0 0.0 0.00 0.00 0.00 80 1023.1
20260831140019 19 123 0.0 0.0 0.00 0.00 0.00 80 1023.0
20260831134521 19 123 0.0 1.6 0.00 0.00 0.00 80 1023.0